Weather History for KLRU - April, 2014

Change the Weather History Date:

Tuesday, April 8, 2014

  Actual Average Record
Temperature  
Mean Temperature 59 °F -  
Max Temperature 77 °F 70 °F 84 °F (2005)
Min Temperature 41 °F 43 °F 35 °F (2007)
Degree Days  
Heating Degree Days 6    
Growing Degree Days 9 (Base 50)    
Moisture  
Dew Point 11 °F    
Average Humidity 15    
Maximum Humidity 25    
Minimum Humidity 9    
Precipitation  
Precipitation 0.00 in - - ()
Sea Level Pressure  
Sea Level Pressure 30.25 in    
Wind  
Wind Speed 5 mph (SW)    
Max Wind Speed 12 mph    
Max Gust Speed 16 mph    
Visibility 10 miles    
Events      
Averages and records for this station are not official NWS values.
T = Trace of Precipitation, MM = Missing Value Source: NWS Daily Summary

Daily Weather History Graph

Daily Weather History Graph

Search for Another Location

Airport or City:

Trip Planner

Search our weather history database for the weather conditions in past years. The results will help you decide how hot, cold, wet, or windy it might be!

Date:

Astronomy

Apr. 08, 2014 Rise Set
Actual Time 6:46 AM MDT 7:32 PM MDT
Civil Twilight 6:22 AM MDT 7:57 PM MDT
Nautical Twilight 5:52 AM MDT 8:26 PM MDT
Astronomical Twilight 5:22 AM MDT 8:56 PM MDT
Moon 1:47 PM MDT (4/8) 2:41 AM MDT (4/8)
Length of Visible Light 13h 35m
Length of Day
12h 45m
Waxing Gibbous, 63% of the Moon is Illuminated
Apr 8
Waxing Gibbous
Apr 15
Full
Apr 22
Last Quarter
Apr 29
New
May 6
First Quarter

Hourly Weather History & Observations

Time (MDT) Temp. Windchill Dew Point Humidity Pressure Visibility Wind Dir Wind Speed Gust Speed Precip Events Conditions
12:15 AM 48.0 °F - 6.8 °F 19% 30.21 in 10.0 mi Calm Calm - N/A   Clear
12:35 AM 48.9 °F - 7.3 °F 19% 30.22 in 10.0 mi North 5.8 mph - N/A   Clear
12:55 AM 48.4 °F - 8.1 °F 20% 30.23 in 10.0 mi North 9.2 mph - N/A   Clear
1:15 AM 49.1 °F - 7.7 °F 19% 30.23 in 10.0 mi North 4.6 mph - N/A   Clear
1:35 AM 47.1 °F - 7.3 °F 20% 30.23 in 10.0 mi North 6.9 mph - N/A   Clear
1:55 AM 46.6 °F - 6.8 °F 20% 30.22 in 10.0 mi NNW 5.8 mph - N/A   Clear
2:15 AM 45.7 °F 41.5 °F 5.9 °F 20% 30.22 in 10.0 mi NNW 8.1 mph - N/A   Clear
2:35 AM 45.5 °F 42.5 °F 5.9 °F 20% 30.22 in 10.0 mi NNW 5.8 mph - N/A   Clear
2:55 AM 46.9 °F - 6.3 °F 19% 30.22 in 10.0 mi Calm Calm - N/A   Clear
3:15 AM 44.4 °F 42.0 °F 5.7 °F 20% 30.22 in 10.0 mi West 4.6 mph - N/A   Clear
3:35 AM 44.8 °F - 5.9 °F 20% 30.22 in 10.0 mi Calm Calm - N/A   Clear
3:55 AM 44.6 °F 40.7 °F 5.7 °F 20% 30.22 in 10.0 mi NNW 6.9 mph - N/A   Clear
4:15 AM 46.4 °F 42.4 °F 6.1 °F 19% 30.21 in 10.0 mi North 8.1 mph - N/A   Clear
4:35 AM 46.0 °F 43.9 °F 6.6 °F 20% 30.22 in 10.0 mi NNE 4.6 mph - N/A   Clear
4:55 AM 45.1 °F 41.4 °F 6.1 °F 20% 30.23 in 10.0 mi WNW 6.9 mph - N/A   Clear
5:15 AM 43.3 °F 39.2 °F 6.3 °F 22% 30.24 in 10.0 mi WNW 6.9 mph - N/A   Clear
5:35 AM 41.4 °F 36.2 °F 5.0 °F 22% 30.24 in 10.0 mi NW 8.1 mph - N/A   Clear
5:55 AM 41.9 °F 36.3 °F 6.1 °F 23% 30.25 in 10.0 mi NW 9.2 mph - N/A   Clear
6:15 AM 41.4 °F 35.7 °F 7.2 °F 24% 30.25 in 10.0 mi NW 9.2 mph - N/A   Clear
6:35 AM 42.1 °F 38.4 °F 8.2 °F 25% 30.26 in 10.0 mi NW 5.8 mph - N/A   Clear
6:55 AM 41.9 °F 40.0 °F 7.5 °F 24% 30.27 in 10.0 mi North 3.5 mph - N/A   Clear
7:15 AM 42.1 °F 38.4 °F 7.7 °F 24% 30.27 in 10.0 mi NNW 5.8 mph - N/A   Clear
7:35 AM 46.4 °F 45.2 °F 8.8 °F 22% 30.28 in 10.0 mi North 3.5 mph - N/A   Clear
7:55 AM 50.0 °F - 9.5 °F 20% 30.29 in 10.0 mi Calm Calm - N/A   Clear
8:15 AM 52.3 °F - 10.6 °F 19% 30.31 in 10.0 mi Calm Calm - N/A   Clear
8:35 AM 56.1 °F - 11.1 °F 17% 30.31 in 10.0 mi ESE 5.8 mph - N/A   Clear
8:55 AM 54.5 °F - 8.8 °F 16% 30.32 in 10.0 mi South 3.5 mph - N/A   Clear
9:15 AM 56.8 °F - 9.9 °F 15% 30.33 in 10.0 mi SSE 5.8 mph - N/A   Clear
9:35 AM 59.4 °F - 10.9 °F 15% 30.33 in 10.0 mi SE 5.8 mph - N/A   Clear
9:55 AM 61.2 °F - 11.8 °F 14% 30.34 in 10.0 mi SE 3.5 mph - N/A   Clear
10:15 AM 63.1 °F - 12.6 °F 14% 30.35 in 10.0 mi SE 3.5 mph - N/A   Clear
10:55 AM 65.3 °F - 13.8 °F 14% 30.35 in 10.0 mi SSE 6.9 mph - N/A   Clear
11:15 AM 65.5 °F - 13.6 °F 13% 30.35 in 10.0 mi ESE 6.9 mph - N/A   Clear
11:35 AM 66.7 °F - 13.8 °F 13% 30.35 in 10.0 mi South 5.8 mph - N/A   Clear
11:55 AM 68.0 °F - 14.5 °F 13% 30.34 in 10.0 mi South 4.6 mph - N/A   Clear
12:15 PM 69.3 °F - 15.8 °F 13% 30.33 in 10.0 mi ENE 4.6 mph - N/A   Clear
12:35 PM 68.7 °F - 15.8 °F 13% 30.33 in 10.0 mi SE 4.6 mph - N/A   Clear
12:55 PM 70.2 °F - 16.2 °F 13% 30.32 in 10.0 mi SSE 6.9 mph - N/A   Clear
1:15 PM 70.9 °F - 15.8 °F 12% 30.31 in 10.0 mi East 4.6 mph - N/A   Clear
1:35 PM 72.0 °F - 16.0 °F 12% 30.30 in 10.0 mi ESE 4.6 mph - N/A   Clear
1:55 PM 72.0 °F - 16.0 °F 12% 30.29 in 10.0 mi SSE 4.6 mph - N/A   Clear
2:15 PM 72.7 °F - 15.8 °F 11% 30.28 in 10.0 mi East 4.6 mph - N/A   Clear
2:35 PM 73.9 °F - 16.0 °F 11% 30.27 in 10.0 mi WSW 6.9 mph - N/A   Clear
2:55 PM 73.2 °F - 15.8 °F 11% 30.26 in 10.0 mi NW 4.6 mph - N/A   Clear
3:15 PM 74.3 °F - 15.8 °F 11% 30.25 in 10.0 mi Calm Calm - N/A   Clear
3:35 PM 74.7 °F - 16.0 °F 11% 30.24 in 10.0 mi SW 10.4 mph - N/A   Clear
3:55 PM 75.2 °F - 16.2 °F 11% 30.23 in 10.0 mi SE 4.6 mph - N/A   Clear
4:15 PM 76.1 °F - 16.3 °F 10% 30.23 in 10.0 mi SSW 9.2 mph - N/A   Clear
4:35 PM 75.6 °F - 15.8 °F 10% 30.23 in 10.0 mi South 5.8 mph - N/A   Clear
4:55 PM 75.7 °F - 15.8 °F 10% 30.22 in 10.0 mi West 3.5 mph - N/A   Clear
5:15 PM 77.7 °F - 15.1 °F 9% 30.22 in 10.0 mi SW 8.1 mph - N/A   Clear
5:35 PM 77.0 °F - 14.0 °F 9% 30.21 in 10.0 mi SSW 6.9 mph - N/A   Clear
5:55 PM 76.8 °F - 13.1 °F 9% 30.21 in 10.0 mi WSW 9.2 mph 16.1 mph N/A   Clear
6:15 PM 76.3 °F - 12.9 °F 9% 30.21 in 10.0 mi WSW 11.5 mph 16.1 mph N/A   Clear
6:35 PM 75.2 °F - 12.7 °F 9% 30.20 in 10.0 mi WSW 11.5 mph - N/A   Clear
6:55 PM 74.8 °F - 12.9 °F 9% 30.20 in 10.0 mi WSW 9.2 mph - N/A   Clear
7:15 PM 73.4 °F - 12.6 °F 10% 30.20 in 10.0 mi SW 8.1 mph - N/A   Clear
7:35 PM 71.4 °F - 12.4 °F 10% 30.21 in 10.0 mi SSW 4.6 mph - N/A   Clear
7:55 PM 69.3 °F - 11.8 °F 11% 30.21 in 10.0 mi SSW 5.8 mph - N/A   Clear
8:15 PM 68.0 °F - 11.3 °F 11% 30.21 in 10.0 mi SSW 6.9 mph - N/A   Clear
8:35 PM 67.1 °F - 11.3 °F 11% 30.21 in 10.0 mi SSW 6.9 mph - N/A   Clear
8:55 PM 66.2 °F - 10.8 °F 12% 30.22 in 10.0 mi SSW 6.9 mph - N/A   Clear
9:15 PM 66.6 °F - 10.4 °F 11% 30.23 in 10.0 mi SSW 8.1 mph - N/A   Clear
9:35 PM 65.5 °F - 10.2 °F 12% 30.23 in 10.0 mi SSW 6.9 mph - N/A   Clear
9:55 PM 63.7 °F - 9.5 °F 12% 30.23 in 10.0 mi SSW 6.9 mph - N/A   Clear
10:15 PM 63.1 °F - 9.9 °F 12% 30.23 in 10.0 mi South 6.9 mph - N/A   Clear
10:35 PM 60.3 °F - 9.0 °F 13% 30.23 in 10.0 mi SSW 6.9 mph - N/A   Clear
10:55 PM 62.2 °F - 9.5 °F 13% 30.23 in 10.0 mi SSW 8.1 mph - N/A   Clear
11:15 PM 59.9 °F - 8.6 °F 13% 30.23 in 10.0 mi SSW 6.9 mph - N/A   Clear
11:35 PM 58.8 °F - 8.2 °F 13% 30.23 in 10.0 mi SSW 6.9 mph - N/A   Clear
11:55 PM 56.7 °F - 7.7 °F 14% 30.23 in 10.0 mi SSW 8.1 mph - N/A   Clear